User: anonymous   Login
Location: Unspecified
(0.0000°N, 0.0000°E)
Time: 10:11:47
(UTC+02:00)
Language:

H-2A R/B - Orbit

View from above orbital plane
View from above orbital plane
View from above satellite
View from above satellite

Ground track
Ground track

The orbit data is extracted from the following two-line orbital elements,

1 26899U 01038B   16118.51152867  .00000815  00000-0  22437-3 0  9993
2 26899  27.8908 234.0172 7132457 272.7948  15.0471  2.47060282126229
Epoch (UTC): 27 April 2016 12:16:36
Eccentricity: 0.7132457
inclination: 27.8908°
perigee height: 250 km
apogee height: 33221 km
right ascension of ascending node: 234.0172°
argument of perigee: 272.7948°
revolutions per day: 2.47060282
mean anomaly at epoch: 15.0471°
orbit number at epoch: 12622

The dashed part of the orbit path shows where the satellite is in the earth's shadow,  

DLR